Minangkabau Airport

Jump to: basic info | weather | frequencies | runways | comments

Related pages: nearby airports | nearby navaids | notams | map

Basic information (top)

Codes: PDG WIPT
Location: lon -0.786917, lat 100.280998, elev 18 ft / 5 m msl
Status: medium_airport
Scheduled airline service: yes
Links: Wikipedia Mobile

Weather (top)

Current conditions (rec'd 2014/07/30 04:30Z):

WIPT 300430Z 26006KT 190V290 9999 SCT020 31/24 Q1011

Airport forecast for Sultan Syarif Kasim Ii (Simpang Tiga) Airport 102nm (190km) NE (rec'd 2014/07/29 12:30Z):

TAF TAF WIBB 291100Z 2912/3012 00000KT 7000 SCT015 
      BECMG 2923/3001 4000 FU

Frequencies (top)

Verify before use: may be inaccurate or out of date.

APP: 124 MHz (PADANG APP)
ATIS: 127.25 MHz (ATIS)
TWR: 118.3 MHz (MINANG TWR)

Runways (top)

15/33: 9,020 x 148 ft (2,749 x 45 m) — paved — lighted

Latest comments (top)

No comments yet for Minangkabau Airport

More... (top)

See also NOTAMs and nearby airports and navaids, or visit the Minangkabau Airport page at the main OurAirports website..